| time (UTC) | temp C | wind direction | speed KPH | gust KPH | rain 1hr cm | rain 24hr cm | rain mn cm | humidity % | barometer mb |
| 20260508111602 | 16 | 38 | 1.6 | 8.0 | 0.00 | 0.10 | 0.08 | 82 | 1013.5 |
| 20260508110050 | 15 | 298 | 0.0 | 3.2 | 0.00 | 0.10 | 0.08 | 85 | 1013.9 |
| 20260508104547 | 15 | 297 | 1.6 | 4.8 | 0.00 | 0.10 | 0.08 | 87 | 1014.2 |
| 20260508103049 | 14 | 290 | 0.0 | 4.8 | 0.00 | 0.10 | 0.08 | 87 | 1014.5 |
| 20260508101546 | 14 | 313 | 0.0 | 3.2 | 0.05 | 0.10 | 0.08 | 88 | 1014.7 |
| 20260508100040 | 13 | 313 | 1.6 | 6.4 | 0.08 | 0.10 | 0.08 | 88 | 1014.4 |
| 20260508094538 | 13 | 315 | 1.6 | 4.8 | 0.08 | 0.10 | 0.08 | 87 | 1014.4 |
| 20260508093039 | 13 | 334 | 3.2 | 6.4 | 0.08 | 0.10 | 0.08 | 86 | 1014.0 |
| 20260508091536 | 13 | 278 | 0.0 | 3.2 | 0.05 | 0.05 | 0.05 | 85 | 1013.9 |
| 20260508090038 | 13 | 285 | 1.6 | 6.4 | 0.00 | 0.03 | 0.00 | 85 | 1014.6 |
| 20260508084532 | 13 | 286 | 3.2 | 9.7 | 0.00 | 0.05 | 0.00 | 84 | 1014.2 |
| 20260508083030 | 13 | 289 | 3.2 | 6.4 | 0.00 | 0.05 | 0.00 | 84 | 1013.9 |
| 20260508081530 | 13 | 257 | 0.0 | 11.3 | 0.00 | 0.05 | 0.00 | 84 | 1013.9 |
| 20260508080050 | 13 | 285 | 1.6 | 6.4 | 0.00 | 0.05 | 0.00 | 83 | 1013.5 |
| 20260508074527 | 13 | 281 | 1.6 | 4.8 | 0.00 | 0.05 | 0.00 | 84 | 1013.4 |
| 20260508073026 | 13 | 239 | 1.6 | 4.8 | 0.00 | 0.05 | 0.00 | 85 | 1013.2 |
| 20260508071525 | 13 | 238 | 0.0 | 6.4 | 0.00 | 0.05 | 0.00 | 86 | 1013.0 |
| 20260508070025 | 13 | 237 | 0.0 | 4.8 | 0.00 | 0.05 | 0.00 | 87 | 1012.9 |
| 20260508064538 | 12 | 278 | 0.0 | 3.2 | 0.00 | 0.05 | 0.00 | 87 | 1012.9 |
| 20260508063023 | 12 | 278 | 0.0 | 6.4 | 0.00 | 0.05 | 0.00 | 87 | 1012.7 |
| 20260508061523 | 12 | 275 | 1.6 | 6.4 | 0.00 | 0.05 | 0.00 | 87 | 1012.7 |
| 20260508060019 | 12 | 263 | 0.0 | 1.6 | 0.00 | 0.05 | 0.00 | 87 | 1012.5 |
| 20260508054532 | 12 | 263 | 0.0 | 3.2 | 0.00 | 0.05 | 0.00 | 87 | 1012.1 |
| 20260508053012 | 11 | 281 | 0.0 | 3.2 | 0.00 | 0.05 | 0.00 | 87 | 1012.0 |
| 20260508051512 | 12 | 281 | 0.0 | 4.8 | 0.00 | 0.05 | 0.00 | 87 | 1012.1 |
| 20260508050010 | 12 | 281 | 0.0 | 3.2 | 0.00 | 0.05 | 0.00 | 87 | 1012.0 |
| 20260508044510 | 12 | 281 | 1.6 | 9.7 | 0.00 | 0.05 | 0.00 | 87 | 1011.7 |
| 20260508043008 | 12 | 265 | 3.2 | 11.3 | 0.00 | 0.05 | 0.00 | 88 | 1011.9 |
| 20260508041507 | 12 | 287 | 1.6 | 6.4 | 0.00 | 0.05 | 0.00 | 88 | 1011.8 |
| 20260508040027 | 11 | 298 | 3.2 | 11.3 | 0.00 | 0.05 | 0.00 | 89 | 1011.8 |
| 20260508034506 | 11 | 265 | 0.0 | 6.4 | 0.00 | 0.05 | 0.00 | 89 | 1011.7 |
| 20260508033006 | 11 | 279 | 0.0 | 4.8 | 0.00 | 0.05 | 0.00 | 89 | 1011.4 |
| 20260508031508 | 12 | 291 | 1.6 | 6.4 | 0.00 | 0.05 | 0.00 | 89 | 1011.7 |
| 20260508030100 | 12 | 292 | 0.0 | 8.0 | 0.00 | 0.05 | 0.00 | 89 | 1012.0 |
| 20260508024558 | 12 | 317 | 1.6 | 4.8 | 0.00 | 0.05 | 0.00 | 88 | 1012.1 |
| 20260508023057 | 12 | 113 | 0.0 | 3.2 | 0.00 | 0.05 | 0.00 | 89 | 1012.0 |
| 20260508021557 | 12 | 111 | 0.0 | 0.0 | 0.00 | 0.05 | 0.00 | 88 | 1012.1 |
| 20260508020058 | 12 | 111 | 0.0 | 0.0 | 0.00 | 0.05 | 0.00 | 88 | 1012.2 |
| 20260508014554 | 12 | 111 | 0.0 | 0.0 | 0.00 | 0.05 | 0.00 | 88 | 1012.1 |
| 20260508013051 | 12 | 111 | 0.0 | 4.8 | 0.00 | 0.05 | 0.00 | 88 | 1012.4 |
| 20260508011549 | 12 | 110 | 0.0 | 0.0 | 0.00 | 0.05 | 0.00 | 88 | 1012.5 |
| 20260508010048 | 12 | 110 | 0.0 | 0.0 | 0.00 | 0.05 | 0.00 | 87 | 1012.6 |
| 20260508004550 | 12 | 111 | 0.0 | 0.0 | 0.00 | 0.05 | 0.00 | 87 | 1012.7 |
| 20260508003048 | 13 | 110 | 0.0 | 1.6 | 0.00 | 0.05 | 0.00 | 87 | 1013.0 |
| 20260508001541 | 13 | 110 | 0.0 | 3.2 | 0.00 | 0.05 | 0.00 | 87 | 1013.2 |
| 20260508000039 | 13 | 111 | 0.0 | 1.6 | 0.00 | 0.05 | 0.00 | 87 | 1013.3 |
| 20260507234547 | 13 | 111 | 0.0 | 3.2 | 0.00 | 0.05 | 0.00 | 87 | 1013.2 |
| 20260507233039 | 13 | 110 | 0.0 | 3.2 | 0.00 | 0.05 | 0.00 | 86 | 1013.5 |
| 20260507231533 | 13 | 111 | 0.0 | 0.0 | 0.00 | 0.05 | 0.00 | 87 | 1013.5 |
| 20260507230032 | 13 | 110 | 0.0 | 1.6 | 0.00 | 0.05 | 0.00 | 86 | 1013.7 |
| 20260507224531 | 13 | 111 | 0.0 | 0.0 | 0.00 | 0.05 | 0.00 | 86 | 1013.7 |
| 20260507223029 | 13 | 111 | 0.0 | 0.0 | 0.00 | 0.05 | 0.00 | 86 | 1013.6 |
| 20260507221532 | 13 | 111 | 0.0 | 1.6 | 0.00 | 0.05 | 0.00 | 85 | 1013.6 |
| 20260507220035 | 13 | 111 | 0.0 | 1.6 | 0.00 | 0.05 | 0.00 | 85 | 1013.5 |
| 20260507214522 | 13 | 110 | 0.0 | 0.0 | 0.00 | 0.05 | 0.05 | 85 | 1013.3 |
| 20260507213027 | 14 | 111 | 0.0 | 6.4 | 0.00 | 0.05 | 0.05 | 84 | 1013.2 |
| 20260507211519 | 14 | 110 | 3.2 | 6.4 | 0.00 | 0.05 | 0.05 | 84 | 1013.1 |
| 20260507210025 | 14 | 101 | 3.2 | 9.7 | 0.00 | 0.05 | 0.05 | 83 | 1012.9 |
| 20260507204515 | 15 | 117 | 1.6 | 11.3 | 0.00 | 0.05 | 0.05 | 82 | 1012.9 |
| 20260507203016 | 15 | 129 | 6.4 | 16.1 | 0.00 | 0.05 | 0.05 | 82 | 1012.8 |
| 20260507201512 | 15 | 112 | 4.8 | 11.3 | 0.00 | 0.05 | 0.05 | 82 | 1012.7 |
| 20260507200012 | 15 | 110 | 4.8 | 9.7 | 0.00 | 0.05 | 0.05 | 82 | 1012.6 |
| 20260507194523 | 15 | 114 | 3.2 | 12.9 | 0.00 | 0.05 | 0.05 | 81 | 1012.4 |
| 20260507193007 | 16 | 118 | 4.8 | 12.9 | 0.00 | 0.05 | 0.05 | 80 | 1012.0 |
| 20260507191504 | 16 | 116 | 3.2 | 9.7 | 0.00 | 0.05 | 0.05 | 79 | 1011.7 |
| 20260507190004 | 16 | 115 | 6.4 | 11.3 | 0.00 | 0.05 | 0.05 | 78 | 1011.5 |
| 20260507184501 | 16 | 117 | 3.2 | 12.9 | 0.00 | 0.05 | 0.05 | 76 | 1011.4 |
| 20260507183117 | 17 | 113 | 4.8 | 14.5 | 0.00 | 0.05 | 0.05 | 75 | 1011.1 |
| 20260507181606 | 17 | 79 | 4.8 | 16.1 | 0.00 | 0.05 | 0.05 | 69 | 1010.8 |
| 20260507180105 | 17 | 84 | 6.4 | 20.9 | 0.00 | 0.05 | 0.05 | 70 | 1010.7 |
| 20260507174604 | 17 | 53 | 6.4 | 19.3 | 0.00 | 0.05 | 0.05 | 72 | 1010.7 |
| 20260507173110 | 17 | 344 | 4.8 | 17.7 | 0.00 | 0.05 | 0.05 | 73 | 1010.8 |
| 20260507171557 | 16 | 304 | 6.4 | 19.3 | 0.00 | 0.05 | 0.05 | 76 | 1010.8 |
| 20260507170058 | 17 | 333 | 9.7 | 19.3 | 0.00 | 0.05 | 0.05 | 76 | 1010.8 |
| 20260507164630 | 17 | 321 | 6.4 | 16.1 | 0.00 | 0.05 | 0.05 | 71 | 1010.5 |
| 20260507163058 | 17 | 350 | 8.0 | 16.1 | 0.00 | 0.05 | 0.05 | 71 | 1010.4 |
| 20260507161600 | 17 | 342 | 6.4 | 14.5 | 0.00 | 0.05 | 0.05 | 71 | 1010.3 |
| 20260507160054 | 17 | 308 | 4.8 | 12.9 | 0.00 | 0.05 | 0.05 | 74 | 1010.2 |
| 20260507154557 | 17 | 44 | 0.0 | 4.8 | 0.00 | 0.05 | 0.05 | 77 | 1010.2 |
| 20260507153056 | 17 | 44 | 3.2 | 9.7 | 0.00 | 0.05 | 0.05 | 77 | 1010.3 |
| 20260507151552 | 17 | 340 | 8.0 | 12.9 | 0.00 | 0.05 | 0.05 | 77 | 1010.3 |
| 20260507150053 | 17 | 336 | 4.8 | 9.7 | 0.00 | 0.05 | 0.05 | 78 | 1010.3 |
| 20260507144550 | 17 | 328 | 6.4 | 16.1 | 0.00 | 0.05 | 0.05 | 81 | 1010.1 |
| 20260507143049 | 17 | 355 | 1.6 | 8.0 | 0.00 | 0.05 | 0.05 | 81 | 1010.1 |
| 20260507141549 | 17 | 75 | 1.6 | 11.3 | 0.03 | 0.05 | 0.05 | 83 | 1010.2 |
| 20260507140047 | 17 | 188 | 1.6 | 12.9 | 0.03 | 0.05 | 0.05 | 83 | 1010.2 |
| 20260507134548 | 17 | 174 | 3.2 | 11.3 | 0.03 | 0.05 | 0.05 | 82 | 1010.2 |
| 20260507133145 | 17 | 250 | 1.6 | 9.7 | 0.03 | 0.05 | 0.05 | 82 | 1010.3 |
| 20260507131543 | 18 | 202 | 4.8 | 16.1 | 0.00 | 0.03 | 0.03 | 79 | 1010.2 |
| 20260507130043 | 18 | 170 | 3.2 | 12.9 | 0.00 | 0.03 | 0.03 | 77 | 1010.3 |
| 20260507124547 | 18 | 138 | 0.0 | 4.8 | 0.00 | 0.03 | 0.03 | 77 | 1010.4 |
| 20260507123043 | 18 | 138 | 0.0 | 4.8 | 0.00 | 0.03 | 0.03 | 77 | 1010.6 |
| 20260507121542 | 18 | 117 | 3.2 | 14.5 | 0.00 | 0.03 | 0.03 | 75 | 1010.8 |
| 20260507120040 | 18 | 128 | 6.4 | 19.3 | 0.00 | 0.03 | 0.03 | 73 | 1010.8 |
| 20260507114556 | 19 | 132 | 8.0 | 16.1 | 0.00 | 0.03 | 0.03 | 72 | 1010.8 |
| 20260507113101 | 18 | 98 | 4.8 | 16.1 | 0.00 | 0.03 | 0.03 | 72 | 1010.8 |